datetime,min air temp
1990-10-01,36.86
1990-10-02,26.42
1990-10-03,27.86
1990-10-04,26.78
1990-10-05,23.18
1990-10-06,14.9
1990-10-07,11.84
1990-10-08,16.7
1990-10-09,22.28
1990-10-10,22.1
1990-10-11,13.46
1990-10-12,24.98
1990-10-13,24.26
1990-10-14,19.58
1990-10-15,37.94
1990-10-16,20.12
1990-10-17,17.24
1990-10-18,24.62
1990-10-19,17.42
1990-10-20,15.8
1990-10-21,24.8
1990-10-22,27.5
1990-10-23,23.36
1990-10-24,25.16
1990-10-25,31.46
1990-10-26,28.04
1990-10-27,24.62
1990-10-28,25.16
1990-10-29,24.98
1990-10-30,39.2
1990-10-31,25.52
1990-11-01,13.46
1990-11-02,7.88
1990-11-03,19.76
1990-11-04,26.96
1990-11-05,20.84
1990-11-06,15.62
1990-11-07,14.18
1990-11-08,29.3
1990-11-09,25.52
1990-11-10,22.46
1990-11-11,20.84
1990-11-12,21.74
1990-11-13,30.92
1990-11-14,14.54
1990-11-15,11.48
1990-11-16,17.24
1990-11-17,22.1
1990-11-18,26.06
1990-11-19,20.48
1990-11-20,17.78
1990-11-21,28.76
1990-11-22,23.18
1990-11-23,21.38
1990-11-24,24.62
1990-11-25,17.06
1990-11-26,9.68
1990-11-27,16.34
1990-11-28,7.88
1990-11-29,21.56
1990-11-30,11.66
1990-12-01,8.24
1990-12-02,10.4
1990-12-03,14.0
1990-12-04,25.34
1990-12-05,13.28
1990-12-06,8.78
1990-12-07,10.22
1990-12-08,24.8
1990-12-09,26.06
1990-12-10,28.94
1990-12-11,12.2
1990-12-12,10.04
1990-12-13,5.18
1990-12-14,3.02
1990-12-15,12.92
1990-12-16,18.68
1990-12-17,18.5
1990-12-18,16.7
1990-12-19,-15.7
1990-12-20,-24.34
1990-12-21,-30.1
1990-12-22,
1990-12-23,
1990-12-24,
1990-12-25,
1990-12-26,
1990-12-27,
1990-12-28,
1990-12-29,-12.1
1990-12-30,-9.94
1990-12-31,0.86
1991-01-01,5.18
1991-01-02,3.56
1991-01-03,7.88
1991-01-04,-0.4
1991-01-05,1.76
1991-01-06,15.8
1991-01-07,15.8
1991-01-08,13.64
1991-01-09,15.26
1991-01-10,29.48
1991-01-11,30.74
1991-01-12,32.72
1991-01-13,30.74
1991-01-14,29.3
1991-01-15,21.02
1991-01-16,16.88
1991-01-17,21.02
1991-01-18,20.12
1991-01-19,15.08
1991-01-20,9.68
1991-01-21,6.98
1991-01-22,10.76
1991-01-23,12.74
1991-01-24,10.58
1991-01-25,6.62
1991-01-26,9.32
1991-01-27,6.98
1991-01-28,8.96
1991-01-29,1.04
1991-01-30,10.58
1991-01-31,26.96
1991-02-01,28.76
1991-02-02,30.74
1991-02-03,30.92
1991-02-04,30.2
1991-02-05,24.62
1991-02-06,27.86
1991-02-07,22.64
1991-02-08,24.08
1991-02-09,24.08
1991-02-10,19.4
1991-02-11,25.52
1991-02-12,23.9
1991-02-13,31.46
1991-02-14,27.5
1991-02-15,29.12
1991-02-16,26.42
1991-02-17,22.82
1991-02-18,23.18
1991-02-19,25.34
1991-02-20,20.84
1991-02-21,18.32
1991-02-22,20.84
1991-02-23,18.86
1991-02-24,17.78
1991-02-25,18.5
1991-02-26,19.22
1991-02-27,19.22
1991-02-28,24.62
1991-03-01,30.56
1991-03-02,28.94
1991-03-03,31.46
1991-03-04,26.06
1991-03-05,18.86
1991-03-06,17.42
1991-03-07,8.96
1991-03-08,10.94
1991-03-09,25.52
1991-03-10,16.7
1991-03-11,6.62
1991-03-12,18.5
1991-03-13,14.72
1991-03-14,17.06
1991-03-15,14.0
1991-03-16,12.56
1991-03-17,20.12
1991-03-18,19.94
1991-03-19,19.94
1991-03-20,19.76
1991-03-21,17.42
1991-03-22,22.28
1991-03-23,26.42
1991-03-24,21.74
1991-03-25,25.34
1991-03-26,19.58
1991-03-27,13.82
1991-03-28,15.98
1991-03-29,19.22
1991-03-30,22.46
1991-03-31,26.96
1991-04-01,28.94
1991-04-02,25.52
1991-04-03,23.18
1991-04-04,31.46
1991-04-05,29.66
1991-04-06,29.66
1991-04-07,16.52
1991-04-08,13.82
1991-04-09,19.94
1991-04-10,13.64
1991-04-11,12.74
1991-04-12,21.2
1991-04-13,20.84
1991-04-14,24.98
1991-04-15,21.38
1991-04-16,21.92
1991-04-17,25.52
1991-04-18,29.3
1991-04-19,25.88
1991-04-20,30.02
1991-04-21,31.28
1991-04-22,30.56
1991-04-23,27.68
1991-04-24,24.08
1991-04-25,20.12
1991-04-26,25.34
1991-04-27,15.8
1991-04-28,20.12
1991-04-29,17.42
1991-04-30,23.54
1991-05-01,28.94
1991-05-02,27.14
1991-05-03,19.4
1991-05-04,22.1
1991-05-05,35.24
1991-05-06,27.32
1991-05-07,28.4
1991-05-08,25.52
1991-05-09,18.14
1991-05-10,28.94
1991-05-11,31.82
1991-05-12,37.76
1991-05-13,31.1
1991-05-14,26.96
1991-05-15,24.98
1991-05-16,31.82
1991-05-17,28.22
1991-05-18,28.04
1991-05-19,25.52
1991-05-20,33.44
1991-05-21,39.56
1991-05-22,29.66
1991-05-23,28.76
1991-05-24,32.18
1991-05-25,21.38
1991-05-26,22.46
1991-05-27,24.62
1991-05-28,26.6
1991-05-29,26.06
1991-05-30,28.22
1991-05-31,23.0
1991-06-01,32.72
1991-06-02,36.86
1991-06-03,29.84
1991-06-04,23.36
1991-06-05,24.26
1991-06-06,32.9
1991-06-07,29.66
1991-06-08,31.82
1991-06-09,36.14
1991-06-10,40.82
1991-06-11,38.48
1991-06-12,29.12
1991-06-13,24.26
1991-06-14,22.64
1991-06-15,26.78
1991-06-16,26.78
1991-06-17,25.52
1991-06-18,32.0
1991-06-19,35.78
1991-06-20,31.28
1991-06-21,25.7
1991-06-22,28.4
1991-06-23,31.28
1991-06-24,39.38
1991-06-25,31.28
1991-06-26,30.38
1991-06-27,41.9
1991-06-28,44.24
1991-06-29,39.38
1991-06-30,32.0
1991-07-01,38.3
1991-07-02,43.34
1991-07-03,45.86
1991-07-04,49.64
1991-07-05,45.5
1991-07-06,39.56
1991-07-07,42.08
1991-07-08,42.08
1991-07-09,42.26
1991-07-10,32.18
1991-07-11,38.66
1991-07-12,42.98
1991-07-13,46.4
1991-07-14,40.46
1991-07-15,39.38
1991-07-16,48.38
1991-07-17,44.42
1991-07-18,36.86
1991-07-19,39.92
1991-07-20,39.74
1991-07-21,36.86
1991-07-22,44.96
1991-07-23,45.68
1991-07-24,47.12
1991-07-25,40.82
1991-07-26,36.14
1991-07-27,39.56
1991-07-28,42.62
1991-07-29,43.88
1991-07-30,40.28
1991-07-31,43.16
1991-08-01,34.34
1991-08-02,38.66
1991-08-03,43.52
1991-08-04,49.46
1991-08-05,46.04
1991-08-06,42.26
1991-08-07,49.28
1991-08-08,42.62
1991-08-09,40.82
1991-08-10,29.48
1991-08-11,32.0
1991-08-12,33.98
1991-08-13,38.12
1991-08-14,38.12
1991-08-15,50.18
1991-08-16,42.8
1991-08-17,40.82
1991-08-18,43.7
1991-08-19,44.78
1991-08-20,48.02
1991-08-21,41.18
1991-08-22,44.24
1991-08-23,42.8
1991-08-24,36.68
1991-08-25,35.42
1991-08-26,32.54
1991-08-27,36.14
1991-08-28,44.78
1991-08-29,37.58
1991-08-30,37.04
1991-08-31,35.6
1991-09-01,39.2
1991-09-02,33.26
1991-09-03,37.76
1991-09-04,42.98
1991-09-05,41.9
1991-09-06,38.66
1991-09-07,39.56
1991-09-08,28.58
1991-09-09,26.96
1991-09-10,28.22
1991-09-11,29.3
1991-09-12,32.36
1991-09-13,35.96
1991-09-14,28.22
1991-09-15,28.4
1991-09-16,32.36
1991-09-17,38.12
1991-09-18,38.3
1991-09-19,38.3
1991-09-20,
1991-09-21,19.76
1991-09-22,25.34
1991-09-23,33.08
1991-09-24,36.68
1991-09-25,37.58
1991-09-26,38.66
1991-09-27,34.16
1991-09-28,33.26
1991-09-29,34.7
1991-09-30,33.98
1991-10-01,33.26
1991-10-02,30.92
1991-10-03,30.2
1991-10-04,28.4
1991-10-05,32.0
1991-10-06,36.5
1991-10-07,28.58
1991-10-08,32.36
1991-10-09,30.02
1991-10-10,29.3
1991-10-11,33.44
1991-10-12,36.14
1991-10-13,29.66
1991-10-14,32.0
1991-10-15,31.64
1991-10-16,35.24
1991-10-17,28.22
1991-10-18,24.62
1991-10-19,26.6
1991-10-20,27.32
1991-10-21,26.42
1991-10-22,24.26
1991-10-23,19.94
1991-10-24,22.28
1991-10-25,31.1
1991-10-26,27.32
1991-10-27,18.5
1991-10-28,13.28
1991-10-29,13.82
1991-10-30,5.72
1991-10-31,14.18
1991-11-01,24.26
1991-11-02,26.42
1991-11-03,27.5
1991-11-04,32.54
1991-11-05,41.18
1991-11-06,36.5
1991-11-07,30.74
1991-11-08,35.42
1991-11-09,30.02
1991-11-10,28.76
1991-11-11,30.56
1991-11-12,30.56
1991-11-13,27.32
1991-11-14,21.38
1991-11-15,12.38
1991-11-16,18.5
1991-11-17,30.2
1991-11-18,26.06
1991-11-19,28.4
1991-11-20,27.86
1991-11-21,15.26
1991-11-22,8.78
1991-11-23,16.7
1991-11-24,32.36
1991-11-25,31.46
1991-11-26,30.56
1991-11-27,15.26
1991-11-28,12.02
1991-11-29,6.98
1991-11-30,4.64
1991-12-01,15.8
1991-12-02,23.36
1991-12-03,19.94
1991-12-04,23.0
1991-12-05,28.4
1991-12-06,31.46
1991-12-07,17.6
1991-12-08,14.0
1991-12-09,17.06
1991-12-10,12.02
1991-12-11,9.86
1991-12-12,20.66
1991-12-13,11.84
1991-12-14,12.02
1991-12-15,19.04
1991-12-16,18.14
1991-12-17,19.4
1991-12-18,21.2
1991-12-19,9.5
1991-12-20,6.62
1991-12-21,12.56
1991-12-22,18.14
1991-12-23,15.08
1991-12-24,11.84
1991-12-25,19.94
1991-12-26,32.54
1991-12-27,28.22
1991-12-28,22.82
1991-12-29,26.06
1991-12-30,22.1
1991-12-31,14.18
1992-01-01,8.42
1992-01-02,21.74
1992-01-03,21.02
1992-01-04,27.5
1992-01-05,16.52
1992-01-06,17.78
1992-01-07,8.6
1992-01-08,2.84
1992-01-09,11.48
1992-01-10,20.12
1992-01-11,6.98
1992-01-12,-2.56
1992-01-13,13.64
1992-01-14,12.38
1992-01-15,19.94
1992-01-16,21.2
1992-01-17,11.48
1992-01-18,3.56
1992-01-19,-1.12
1992-01-20,3.74
1992-01-21,18.68
1992-01-22,14.36
1992-01-23,12.56
1992-01-24,25.16
1992-01-25,19.76
1992-01-26,21.2
1992-01-27,31.46
1992-01-28,28.94
1992-01-29,25.7
1992-01-30,30.56
1992-01-31,33.26
1992-02-01,19.94
1992-02-02,18.68
1992-02-03,15.98
1992-02-04,18.14
1992-02-05,18.68
1992-02-06,23.72
1992-02-07,22.1
1992-02-08,20.48
1992-02-09,29.3
1992-02-10,27.86
1992-02-11,31.46
1992-02-12,29.3
1992-02-13,28.76
1992-02-14,28.22
1992-02-15,23.0
1992-02-16,24.8
1992-02-17,19.04
1992-02-18,28.22
1992-02-19,32.9
1992-02-20,31.46
1992-02-21,29.84
1992-02-22,24.26
1992-02-23,20.3
1992-02-24,25.16
1992-02-25,29.48
1992-02-26,28.22
1992-02-27,25.16
1992-02-28,25.16
1992-02-29,26.06
1992-03-01,28.94
1992-03-02,26.78
1992-03-03,25.16
1992-03-04,23.18
1992-03-05,30.2
1992-03-06,26.6
1992-03-07,28.22
1992-03-08,24.62
1992-03-09,17.6
1992-03-10,19.22
1992-03-11,21.2
1992-03-12,21.38
1992-03-13,21.56
1992-03-14,23.36
1992-03-15,27.5
1992-03-16,30.2
1992-03-17,23.72
1992-03-18,18.32
1992-03-19,19.22
1992-03-20,20.3
1992-03-21,20.48
1992-03-22,22.82
1992-03-23,23.36
1992-03-24,22.82
1992-03-25,27.86
1992-03-26,24.44
1992-03-27,21.38
1992-03-28,25.16
1992-03-29,31.64
1992-03-30,30.02
1992-03-31,26.06
1992-04-01,26.6
1992-04-02,26.06
1992-04-03,29.48
1992-04-04,22.64
1992-04-05,14.36
1992-04-06,15.26
1992-04-07,15.62
1992-04-08,30.38
1992-04-09,38.66
1992-04-10,36.14
1992-04-11,37.22
1992-04-12,37.4
1992-04-13,32.18
1992-04-14,27.86
1992-04-15,30.2
1992-04-16,38.84
1992-04-17,27.5
1992-04-18,24.62
1992-04-19,23.72
1992-04-20,32.36
1992-04-21,29.12
1992-04-22,21.38
1992-04-23,16.88
1992-04-24,26.42
1992-04-25,31.1
1992-04-26,36.5
1992-04-27,31.28
1992-04-28,36.14
1992-04-29,40.46
1992-04-30,25.52
1992-05-01,20.3
1992-05-02,23.72
1992-05-03,28.4
1992-05-04,29.48
1992-05-05,33.44
1992-05-06,37.58
1992-05-07,44.96
1992-05-08,36.68
1992-05-09,25.88
1992-05-10,30.38
1992-05-11,28.76
1992-05-12,24.26
1992-05-13,34.7
1992-05-14,32.9
1992-05-15,32.72
1992-05-16,31.64
1992-05-17,39.38
1992-05-18,34.34
1992-05-19,34.16
1992-05-20,29.66
1992-05-21,21.38
1992-05-22,26.78
1992-05-23,34.7
1992-05-24,39.38
1992-05-25,46.76
1992-05-26,36.32
1992-05-27,27.32
1992-05-28,35.06
1992-05-29,33.44
1992-05-30,45.68
1992-05-31,38.12
1992-06-01,42.98
1992-06-02,38.3
1992-06-03,35.78
1992-06-04,34.7
1992-06-05,30.2
1992-06-06,33.98
1992-06-07,36.5
1992-06-08,32.9
1992-06-09,34.34
1992-06-10,32.0
1992-06-11,35.24
1992-06-12,28.4
1992-06-13,25.7
1992-06-14,26.06
1992-06-15,26.06
1992-06-16,39.38
1992-06-17,29.12
1992-06-18,37.76
1992-06-19,39.92
1992-06-20,41.18
1992-06-21,44.06
1992-06-22,50.18
1992-06-23,52.7
1992-06-24,50.72
1992-06-25,48.2
1992-06-26,46.94
1992-06-27,43.88
1992-06-28,40.46
1992-06-29,37.04
1992-06-30,33.44
1992-07-01,41.54
1992-07-02,36.68
1992-07-03,41.18
1992-07-04,37.04
1992-07-05,45.14
1992-07-06,38.66
1992-07-07,30.02
1992-07-08,34.16
1992-07-09,33.8
1992-07-10,39.2
1992-07-11,40.82
1992-07-12,37.04
1992-07-13,39.2
1992-07-14,40.82
1992-07-15,38.3
1992-07-16,42.08
1992-07-17,47.84
1992-07-18,42.62
1992-07-19,44.96
1992-07-20,44.06
1992-07-21,34.16
1992-07-22,39.02
1992-07-23,30.02
1992-07-24,31.46
1992-07-25,39.92
1992-07-26,44.42
1992-07-27,45.86
1992-07-28,45.14
1992-07-29,39.56
1992-07-30,46.22
1992-07-31,47.48
1992-08-01,44.78
1992-08-02,40.82
1992-08-03,41.9
1992-08-04,39.38
1992-08-05,34.34
1992-08-06,37.58
1992-08-07,45.5
1992-08-08,40.28
1992-08-09,32.54
1992-08-10,39.02
1992-08-11,45.68
1992-08-12,54.86
1992-08-13,47.48
1992-08-14,51.62
1992-08-15,52.16
1992-08-16,50.18
1992-08-17,49.1
1992-08-18,47.48
1992-08-19,46.4
1992-08-20,39.74
1992-08-21,36.14
1992-08-22,25.52
1992-08-23,26.06
1992-08-24,31.46
1992-08-25,25.34
1992-08-26,28.76
1992-08-27,35.24
1992-08-28,35.6
1992-08-29,34.7
1992-08-30,34.7
1992-08-31,38.3
1992-09-01,
1992-09-02,37.04
1992-09-03,33.62
1992-09-04,36.5
1992-09-05,28.76
1992-09-06,22.28
1992-09-07,24.26
1992-09-08,32.0
1992-09-09,31.46
1992-09-10,37.4
1992-09-11,35.6
1992-09-12,26.06
1992-09-13,19.4
1992-09-14,21.38
1992-09-15,33.98
1992-09-16,30.56
1992-09-17,29.3
1992-09-18,31.1
1992-09-19,35.42
1992-09-20,31.82
1992-09-21,36.32
1992-09-22,40.1
1992-09-23,40.82
1992-09-24,30.02
1992-09-25,27.14
1992-09-26,26.96
1992-09-27,28.22
1992-09-28,30.2
1992-09-29,32.72
1992-09-30,37.94
1992-10-01,40.64
1992-10-02,36.32
1992-10-03,28.58
1992-10-04,22.64
1992-10-05,23.9
1992-10-06,25.52
1992-10-07,20.48
1992-10-08,28.76
1992-10-09,25.16
1992-10-10,28.58
1992-10-11,32.0
1992-10-12,30.56
1992-10-13,25.52
1992-10-14,15.62
1992-10-15,14.9
1992-10-16,24.44
1992-10-17,24.44
1992-10-18,29.48
1992-10-19,29.12
1992-10-20,32.72
1992-10-21,28.4
1992-10-22,28.22
1992-10-23,27.5
1992-10-24,26.24
1992-10-25,26.06
1992-10-26,25.7
1992-10-27,28.94
1992-10-28,34.88
1992-10-29,35.06
1992-10-30,31.64
1992-10-31,32.0
1992-11-01,38.48
1992-11-02,25.34
1992-11-03,23.18
1992-11-04,27.86
1992-11-05,25.34
1992-11-06,30.02
1992-11-07,25.52
1992-11-08,23.18
1992-11-09,13.46
1992-11-10,6.98
1992-11-11,12.38
1992-11-12,24.08
1992-11-13,23.36
1992-11-14,23.36
1992-11-15,22.46
1992-11-16,23.18
1992-11-17,24.08
1992-11-18,18.14
1992-11-19,15.8
1992-11-20,7.16
1992-11-21,25.52
1992-11-22,15.98
1992-11-23,8.78
1992-11-24,1.76
1992-11-25,19.22
1992-11-26,13.82
1992-11-27,26.6
1992-11-28,16.88
1992-11-29,7.7
1992-11-30,27.86
1992-12-01,30.38
1992-12-02,25.16
1992-12-03,2.3
1992-12-04,-4.9
1992-12-05,-9.22
1992-12-06,24.44
1992-12-07,16.16
1992-12-08,22.1
1992-12-09,24.08
1992-12-10,18.14
1992-12-11,23.18
1992-12-12,9.86
1992-12-13,6.08
1992-12-14,6.8
1992-12-15,6.62
1992-12-16,5.72
1992-12-17,11.12
1992-12-18,4.28
1992-12-19,-1.3
1992-12-20,23.9
1992-12-21,13.1
1992-12-22,10.58
1992-12-23,5.54
1992-12-24,5.0
1992-12-25,-4.0
1992-12-26,11.3
1992-12-27,27.86
1992-12-28,24.62
1992-12-29,15.98
1992-12-30,12.2
1992-12-31,23.72
1993-01-01,7.16
1993-01-02,-8.14
1993-01-03,10.22
1993-01-04,18.86
1993-01-05,16.52
1993-01-06,7.34
1993-01-07,17.6
1993-01-08,19.4
1993-01-09,5.36
1993-01-10,7.34
1993-01-11,12.02
1993-01-12,4.46
1993-01-13,14.36
1993-01-14,15.98
1993-01-15,10.04
1993-01-16,12.2
1993-01-17,1.58
1993-01-18,11.66
1993-01-19,21.2
1993-01-20,27.5
1993-01-21,21.02
1993-01-22,0.86
1993-01-23,-5.62
1993-01-24,21.2
1993-01-25,11.48
1993-01-26,8.06
1993-01-27,8.78
1993-01-28,15.8
1993-01-29,11.84
1993-01-30,9.32
1993-01-31,6.08
1993-02-01,7.16
1993-02-02,17.78
1993-02-03,22.82
1993-02-04,18.86
1993-02-05,31.64
1993-02-06,23.54
1993-02-07,18.14
1993-02-08,25.16
1993-02-09,26.06
1993-02-10,26.06
1993-02-11,23.0
1993-02-12,18.5
1993-02-13,9.32
1993-02-14,4.82
1993-02-15,-4.72
1993-02-16,-9.94
1993-02-17,3.92
1993-02-18,17.24
1993-02-19,23.36
1993-02-20,10.4
1993-02-21,17.96
1993-02-22,19.4
1993-02-23,19.22
1993-02-24,6.44
1993-02-25,-3.46
1993-02-26,-4.0
1993-02-27,-8.86
1993-02-28,-1.6600000000000001
1993-03-01,10.22
1993-03-02,30.74
1993-03-03,27.86
1993-03-04,27.5
1993-03-05,23.0
1993-03-06,22.82
1993-03-07,22.46
1993-03-08,27.86
1993-03-09,33.26
1993-03-10,29.3
1993-03-11,24.98
1993-03-12,25.16
1993-03-13,27.68
1993-03-14,33.62
1993-03-15,32.9
1993-03-16,32.9
1993-03-17,35.24
1993-03-18,31.64
1993-03-19,27.14
1993-03-20,24.98
1993-03-21,21.02
1993-03-22,26.42
1993-03-23,31.64
1993-03-24,25.88
1993-03-25,24.44
1993-03-26,26.78
1993-03-27,23.9
1993-03-28,24.26
1993-03-29,25.34
1993-03-30,24.26
1993-03-31,28.58
1993-04-01,27.5
1993-04-02,27.5
1993-04-03,33.98
1993-04-04,26.42
1993-04-05,23.9
1993-04-06,21.56
1993-04-07,25.88
1993-04-08,31.1
1993-04-09,24.98
1993-04-10,22.28
1993-04-11,16.7
1993-04-12,15.62
1993-04-13,24.62
1993-04-14,19.58
1993-04-15,26.24
1993-04-16,24.08
1993-04-17,29.3
1993-04-18,25.16
1993-04-19,19.58
1993-04-20,27.14
1993-04-21,28.04
1993-04-22,25.34
1993-04-23,29.66
1993-04-24,31.64
1993-04-25,30.74
1993-04-26,24.26
1993-04-27,21.38
1993-04-28,24.98
1993-04-29,30.02
1993-04-30,24.62
1993-05-01,26.06
1993-05-02,35.24
1993-05-03,29.66
1993-05-04,23.18
1993-05-05,24.08
1993-05-06,25.52
1993-05-07,21.38
1993-05-08,23.54
1993-05-09,25.16
1993-05-10,39.92
1993-05-11,34.34
1993-05-12,35.24
1993-05-13,27.68
1993-05-14,36.68
1993-05-15,31.1
1993-05-16,37.04
1993-05-17,35.42
1993-05-18,41.72
1993-05-19,37.4
1993-05-20,40.46
1993-05-21,33.26
1993-05-22,26.78
1993-05-23,31.82
1993-05-24,38.48
1993-05-25,34.16
1993-05-26,33.62
1993-05-27,37.22
1993-05-28,34.34
1993-05-29,28.94
1993-05-30,46.04
1993-05-31,37.94
1993-06-01,37.94
1993-06-02,34.7
1993-06-03,28.22
1993-06-04,40.1
1993-06-05,35.96
1993-06-06,39.92
1993-06-07,31.82
1993-06-08,26.42
1993-06-09,32.72
1993-06-10,37.58
1993-06-11,26.06
1993-06-12,20.84
1993-06-13,28.22
1993-06-14,39.2
1993-06-15,36.5
1993-06-16,28.94
1993-06-17,34.7
1993-06-18,39.74
1993-06-19,44.42
1993-06-20,43.7
1993-06-21,38.3
1993-06-22,24.26
1993-06-23,22.82
1993-06-24,29.12
1993-06-25,37.22
1993-06-26,43.34
1993-06-27,35.24
1993-06-28,28.4
1993-06-29,31.1
1993-06-30,30.74
1993-07-01,35.42
1993-07-02,33.8
1993-07-03,29.12
1993-07-04,31.64
1993-07-05,30.02
1993-07-06,28.58
1993-07-07,27.32
1993-07-08,35.6
1993-07-09,36.68
1993-07-10,28.58
1993-07-11,33.98
1993-07-12,26.06
1993-07-13,29.66
1993-07-14,29.84
1993-07-15,29.84
1993-07-16,28.58
1993-07-17,29.3
1993-07-18,30.56
1993-07-19,39.2
1993-07-20,32.9
1993-07-21,27.86
1993-07-22,48.02
1993-07-23,41.18
1993-07-24,31.64
1993-07-25,30.38
1993-07-26,30.56
1993-07-27,34.7
1993-07-28,41.0
1993-07-29,37.04
1993-07-30,29.3
1993-07-31,
1993-08-01,43.34
1993-08-02,41.72
1993-08-03,43.88
1993-08-04,48.74
1993-08-05,42.8
1993-08-06,43.88
1993-08-07,38.48
1993-08-08,34.52
1993-08-09,34.88
1993-08-10,46.94
1993-08-11,36.68
1993-08-12,36.14
1993-08-13,35.96
1993-08-14,34.88
1993-08-15,37.94
1993-08-16,33.98
1993-08-17,30.92
1993-08-18,36.68
1993-08-19,43.88
1993-08-20,42.08
1993-08-21,39.92
1993-08-22,34.88
1993-08-23,36.32
1993-08-24,27.32
1993-08-25,24.8
1993-08-26,27.68
1993-08-27,30.56
1993-08-28,33.44
1993-08-29,31.82
1993-08-30,31.46
1993-08-31,33.08
1993-09-01,36.14
1993-09-02,35.78
1993-09-03,41.18
1993-09-04,40.64
1993-09-05,40.46
1993-09-06,42.98
1993-09-07,40.46
1993-09-08,39.56
1993-09-09,39.38
1993-09-10,41.0
1993-09-11,38.84
1993-09-12,26.24
1993-09-13,24.26
1993-09-14,24.8
1993-09-15,30.02
1993-09-16,37.4
1993-09-17,36.32
1993-09-18,32.72
1993-09-19,27.32
1993-09-20,20.66
1993-09-21,17.24
1993-09-22,19.76
1993-09-23,
1993-09-24,21.74
1993-09-25,26.06
1993-09-26,30.92
1993-09-27,31.46
1993-09-28,34.88
1993-09-29,32.0
1993-09-30,32.0
1993-10-01,30.56
1993-10-02,31.1
1993-10-03,31.64
1993-10-04,39.38
1993-10-05,
1993-10-06,
1993-10-07,24.98
1993-10-08,22.46
1993-10-09,
1993-10-10,
1993-10-11,35.78
1993-10-12,
1993-10-13,28.76
1993-10-14,27.86
1993-10-15,34.16
1993-10-16,
1993-10-17,25.52
1993-10-18,22.28
1993-10-19,24.8
1993-10-20,
1993-10-21,30.38
1993-10-22,
1993-10-23,24.26
1993-10-24,28.22
1993-10-25,23.54
1993-10-26,23.36
1993-10-27,21.74
1993-10-28,27.86
1993-10-29,28.22
1993-10-30,
1993-10-31,
1993-11-01,15.98
1993-11-02,16.7
1993-11-03,22.64
1993-11-04,
1993-11-05,13.82
1993-11-06,14.18
1993-11-07,11.48
1993-11-08,10.4
1993-11-09,20.84
1993-11-10,21.2
1993-11-11,17.42
1993-11-12,16.7
1993-11-13,13.28
1993-11-14,9.68
1993-11-15,9.5
1993-11-16,17.78
1993-11-17,22.28
1993-11-18,10.94
1993-11-19,6.08
1993-11-20,6.26
1993-11-21,13.1
1993-11-22,
1993-11-23,-4.36
1993-11-24,-12.64
1993-11-25,
1993-11-26,-0.76
1993-11-27,16.16
1993-11-28,31.64
1993-11-29,30.92
1993-11-30,20.48
1993-12-01,24.62
1993-12-02,19.22
1993-12-03,
1993-12-04,
1993-12-05,20.3
1993-12-06,21.02
1993-12-07,
1993-12-08,29.12
1993-12-09,27.32
1993-12-10,37.76
1993-12-11,20.66
1993-12-12,15.26
1993-12-13,23.72
1993-12-14,23.72
1993-12-15,10.58
1993-12-16,9.32
1993-12-17,17.96
1993-12-18,7.7
1993-12-19,4.46
1993-12-20,7.34
1993-12-21,
1993-12-22,
1993-12-23,10.94
1993-12-24,11.84
1993-12-25,13.82
1993-12-26,18.86
1993-12-27,12.2
1993-12-28,12.56
1993-12-29,
1993-12-30,27.86
1993-12-31,25.34
1994-01-01,27.86
1994-01-02,
1994-01-03,29.48
1994-01-04,
1994-01-05,15.62
1994-01-06,12.02
1994-01-07,11.66
1994-01-08,
1994-01-09,17.06
1994-01-10,
1994-01-11,21.56
1994-01-12,20.66
1994-01-13,
1994-01-14,18.5
1994-01-15,21.02
1994-01-16,
1994-01-17,
1994-01-18,
1994-01-19,15.98
1994-01-20,16.7
1994-01-21,
1994-01-22,28.76
1994-01-23,32.0
1994-01-24,
1994-01-25,16.7
1994-01-26,10.94
1994-01-27,10.04
1994-01-28,14.36
1994-01-29,8.24
1994-01-30,11.48
1994-01-31,3.02
1994-02-01,5.54
1994-02-02,5.54
1994-02-03,4.64
1994-02-04,
1994-02-05,9.5
1994-02-06,13.64
1994-02-07,14.36
1994-02-08,0.86
1994-02-09,17.06
1994-02-10,15.08
1994-02-11,5.9
1994-02-12,-1.8399999999999999
1994-02-13,
1994-02-14,21.92
1994-02-15,
1994-02-16,32.72
1994-02-17,21.92
1994-02-18,18.32
1994-02-19,18.68
1994-02-20,23.0
1994-02-21,15.08
1994-02-22,6.8
1994-02-23,25.52
1994-02-24,28.76
1994-02-25,27.32
1994-02-26,31.28
1994-02-27,29.84
1994-02-28,30.2
1994-03-01,32.0
1994-03-02,32.18
1994-03-03,32.18
1994-03-04,28.4
1994-03-05,25.16
1994-03-06,13.64
1994-03-07,17.24
1994-03-08,20.3
1994-03-09,
1994-03-10,23.72
1994-03-11,18.5
1994-03-12,19.76
1994-03-13,22.64
1994-03-14,26.42
1994-03-15,27.32
1994-03-16,23.72
1994-03-17,21.92
1994-03-18,21.2
1994-03-19,10.76
1994-03-20,14.36
1994-03-21,23.54
1994-03-22,15.26
1994-03-23,12.92
1994-03-24,19.76
1994-03-25,19.4
1994-03-26,16.88
1994-03-27,20.84
1994-03-28,24.08
1994-03-29,25.88
1994-03-30,29.66
1994-03-31,26.96
1994-04-01,23.0
1994-04-02,27.32
1994-04-03,22.64
1994-04-04,14.9
1994-04-05,17.78
1994-04-06,23.18
1994-04-07,19.4
1994-04-08,28.76
1994-04-09,22.46
1994-04-10,22.82
1994-04-11,23.36
1994-04-12,25.88
1994-04-13,23.72
1994-04-14,
1994-04-15,25.16
1994-04-16,32.54
1994-04-17,37.04
1994-04-18,27.86
1994-04-19,36.14
1994-04-20,27.86
1994-04-21,32.18
1994-04-22,26.06
1994-04-23,26.06
1994-04-24,27.86
1994-04-25,26.78
1994-04-26,31.46
1994-04-27,28.76
1994-04-28,25.52
1994-04-29,26.78
1994-04-30,25.88
1994-05-01,21.38
1994-05-02,23.72
1994-05-03,30.74
1994-05-04,38.66
1994-05-05,37.58
1994-05-06,37.58
1994-05-07,37.76
1994-05-08,35.24
1994-05-09,38.84
1994-05-10,38.12
1994-05-11,41.36
1994-05-12,30.56
1994-05-13,25.52
1994-05-14,29.66
1994-05-15,31.28
1994-05-16,29.66
1994-05-17,25.16
1994-05-18,24.8
1994-05-19,35.6
1994-05-20,35.24
1994-05-21,29.84
1994-05-22,27.32
1994-05-23,31.46
1994-05-24,49.28
1994-05-25,41.0
1994-05-26,36.14
1994-05-27,26.78
1994-05-28,33.62
1994-05-29,32.9
1994-05-30,28.4
1994-05-31,41.0
1994-06-01,31.1
1994-06-02,30.56
1994-06-03,35.96
1994-06-04,31.64
1994-06-05,34.16
1994-06-06,30.02
1994-06-07,25.52
1994-06-08,23.72
1994-06-09,32.18
1994-06-10,37.22
1994-06-11,43.52
1994-06-12,41.36
1994-06-13,32.0
1994-06-14,23.18
1994-06-15,25.88
1994-06-16,24.8
1994-06-17,29.66
1994-06-18,26.42
1994-06-19,30.2
1994-06-20,37.22
1994-06-21,40.46
1994-06-22,39.2
1994-06-23,37.58
1994-06-24,30.02
1994-06-25,35.06
1994-06-26,26.96
1994-06-27,32.0
1994-06-28,40.46
1994-06-29,42.8
1994-06-30,40.64
1994-07-01,35.24
1994-07-02,40.46
1994-07-03,28.76
1994-07-04,35.78
1994-07-05,30.2
1994-07-06,29.48
1994-07-07,39.56
1994-07-08,44.06
1994-07-09,46.94
1994-07-10,37.58
1994-07-11,37.58
1994-07-12,37.94
1994-07-13,
1994-07-14,
1994-07-15,
1994-07-16,
1994-07-17,
1994-07-18,
1994-07-19,
1994-07-20,
1994-07-21,
1994-07-22,
1994-07-23,
1994-07-24,
1994-07-25,
1994-07-26,
1994-07-27,
1994-07-28,
1994-07-29,
1994-07-30,
1994-07-31,
1994-08-01,59.54
1994-08-02,42.98
1994-08-03,44.96
1994-08-04,42.26
1994-08-05,38.48
1994-08-06,35.6
1994-08-07,38.66
1994-08-08,34.34
1994-08-09,30.56
1994-08-10,31.1
1994-08-11,35.78
1994-08-12,37.22
1994-08-13,37.4
1994-08-14,36.5
1994-08-15,37.58
1994-08-16,34.88
1994-08-17,34.34
1994-08-18,36.68
1994-08-19,37.58
1994-08-20,35.6
1994-08-21,33.8
1994-08-22,29.66
1994-08-23,33.44
1994-08-24,37.22
1994-08-25,35.96
1994-08-26,34.7
1994-08-27,33.08
1994-08-28,33.98
1994-08-29,32.36
1994-08-30,34.34
1994-08-31,35.24
1994-09-01,38.12
1994-09-02,33.08
1994-09-03,32.72
1994-09-04,25.88
1994-09-05,30.74
1994-09-06,37.04
1994-09-07,33.44
1994-09-08,41.72
1994-09-09,33.08
1994-09-10,31.46
1994-09-11,29.12
1994-09-12,28.94
1994-09-13,27.68
1994-09-14,28.58
1994-09-15,31.28
1994-09-16,33.08